COSMOS 252 DEB *, 3713

Orbit data source: Space-Track

COSMOS 252 DEB *, 3713 is space debris in LEO originally from a launch on Fri, 01 Nov 1968 UTC launched from the Tyuratam Missile And Space Complex (TTMTR). Debris objects in space refer to the collection of defunct objects orbiting the Earth. Examples of debris include non-operational satellites, rocket bodies, and fragments generated from explosions, collisions, or faulty payload assembly.

Loading next visibility...
Identifier
3713, 1968-097AQ
Orbit
LEO
Country
Flag of CISCIS
Related business
Manufacturer
Unknown
Mission
Spacecraft
Bus & Motor
Unknown
Mass
Unknown
Launch date (UTC)
1968-11-01 (57 years ago)
Launch vehicle
Unknown
Launch site
Tyuratam Missile And Space Complex (TTMTR)
Object type
Payload
Rocket body
Debris
Shape & HBR
Unknown shape, 0.1 m
Radar Cross Section
Small (<0.1 m²)

Expand to show TLE details & history
Last TLE update: 3 days ago

TLE from 3 days ago
0 COSMOS 252 DEB *
1 03713U 68097AQ  26032.61451672  .00000893  00000-0  95505-3 0  9996
2 03713  62.2192 176.4051 0637595 335.3414  21.8291 13.13507459671443
Epoch: 2026-02-01T14:44Z
TLE epoch observation values (Epoch: 2026-02-01T14:44:54.244Z)
Latitude
-0.00004°
Longitude
-176.64256°
Altitude
766.821 km
Speed
7.687 km/s
True Right ascension
11h 45m 37s
True Declination
0° 00' 00"
Sunlit
Object was in full shadow at epoch
Visualization orbit readout
Latitude
Unknown
Longitude
Unknown
Altitude
Unknown
Speed
Unknown
Apparent Right ascension
Unknown
Apparent Declination
Unknown
Sunlit
N/A
Visualization observer readout
Local Sidereal Time
09:20:29
Azimuth
Unknown
Elevation
Unknown
Doppler factor
Unknown
Orbital elements
Apogee altitude
1,692.336 km
Perigee altitude
724.882 km
Semi-major axis
7,586.746 km
Eccentricity
0.06376
Inclination
62.2192°
RAAN
176.4051°
Arg. of periapsis
335.3414°
True anomaly
24.76087°
Mean anomaly
21.8291°
Eccentric anomaly
23.27248°
Mean motion
3.28443 °/min
Orbital period
109.61 mins
BSTAR
0.00095505

Documentation

Showing up to 5 results
|